Wind_Speed
16 15 12 10 8 8 8 6 4 2 3 4 5 5 7 8 8 9 9 10 11 11 11 11 11 11 11 11 11 12 12 11 11 10 10 10 10 9 9 8 7 8 7 7
18 15 12 12 13 12 9 7 5 3 0 2 3 4 5 7 8 8 9 9 10 10 11 11 12 11 10 11 11 11 11 11 11 11 11 10 10 9 9 9 9 9 8 7
18 15 14 16 16 15 12 9 6 4 4 2 1 3 3 4 5 6 7 8 8 9 10 10 10 10 10 10 10 11 11 10 10 10 10 10 10 10 10 10 9 9 9 8
21 19 18 18 17 15 13 11 7 7 6 5 3 3 2 2 3 4 5 6 6 7 8 8 8 8 8 9 9 10 10 10 10 10 10 10 10 10 10 10 10 10 9 9
23 21 21 21 18 16 14 13 11 9 9 8 7 6 4 3 4 4 5 5 6 7 6 6 7 6 7 7 8 9 9 9 9 9 9 9 10 10 10 10 11 11 10 10
25 23 22 21 20 18 16 15 14 13 13 11 9 8 5 4 4 4 3 3 4 5 5 5 5 4 5 6 7 8 8 9 9 9 9 9 8 9 9 9 10 10 10 10
26 25 24 23 22 21 20 18 17 17 16 14 12 10 7 5 5 4 4 3 4 4 5 5 5 4 4 5 6 7 7 7 8 8 9 8 8 9 9 9 9 10 10 10
26 27 26 25 23 21 21 21 20 19 17 15 14 13 9 7 5 5 5 5 5 5 5 4 4 3 3 4 6 6 6 6 6 7 7 7 8 8 8 9 9 9 10 10
27 27 26 25 23 22 22 22 21 20 18 17 16 14 12 10 8 8 7 7 7 5 4 4 5 4 4 4 6 5 7 6 6 7 7 6 7 8 8 9 9 10 10 10
28 27 27 26 25 23 23 23 23 22 20 19 18 16 14 12 10 9 8 8 8 7 6 5 5 5 5 5 6 7 7 7 7 7 7 7 7 8 8 9 9 10 10 11
28 28 28 27 27 25 25 26 25 23 22 21 20 18 15 13 12 11 9 8 8 8 6 7 7 7 7 7 7 7 8 8 8 8 8 7 8 8 9 9 10 10 11 11
29 29 29 29 29 27 26 26 26 25 24 24 23 20 16 14 14 13 11 10 10 10 9 9 9 8 8 8 8 9 9 9 9 9 9 9 9 9 10 10 10 11 12 12
30 30 30 30 30 29 27 25 26 26 26 25 24 21 16 15 15 14 13 12 13 12 12 12 11 10 9 9 10 10 10 10 11 11 11 11 11 11 11 12 12 12 12 12
30 32 33 33 32 30 29 26 26 28 27 26 25 23 19 17 17 16 15 15 15 14 13 12 12 11 11 11 11 11 11 11 12 12 13 13 13 13 13 13 13 13 13 14
31 33 34 33 32 32 31 28 27 28 28 27 26 24 20 19 19 18 17 16 15 14 13 14 14 13 13 12 12 12 12 12 13 14 14 15 15 15 15 14 15 15 15 15
32 33 34 34 33 33 32 31 29 29 29 29 29 26 23 20 19 19 17 16 16 15 15 15 15 14 15 15 14 14 14 14 15 15 15 15 16 16 16 17 16 16 16 17
32 33 34 34 34 34 33 32 31 29 28 29 28 26 24 23 21 20 18 18 18 18 18 17 16 16 16 17 16 16 16 16 17 16 16 16 17 17 18 18 17 17 17 17
32 33 34 35 35 36 33 31 31 29 28 29 28 26 25 25 23 22 20 20 19 20 19 18 17 17 17 17 17 18 17 17 17 17 17 17 18 19 19 18 18 18 18 18
33 33 34 35 37 37 35 33 31 30 29 29 29 29 28 27 27 25 23 22 21 21 20 20 20 19 18 19 19 19 19 19 18 18 18 19 20 20 20 20 19 20 20 20
35 33 34 34 36 37 35 34 32 32 32 31 31 31 31 29 28 26 25 25 25 24 23 22 21 21 20 20 20 20 20 20 20 20 20 20 21 21 21 21 21 21 21 21
34 34 35 34 35 36 35 33 32 33 33 31 31 30 29 30 28 27 27 28 28 27 25 24 23 22 21 20 21 21 22 22 21 21 21 22 22 22 22 22 22 22 22 23
33 33 35 35 34 33 34 33 32 33 32 31 31 30 29 28 29 29 29 29 28 28 26 26 24 23 22 22 22 22 22 23 23 22 22 23 23 23 22 22 22 22 23 23
33 34 34 34 33 32 31 32 32 32 32 31 31 31 30 29 30 30 30 30 30 28 26 26 25 25 24 24 24 24 24 24 25 25 24 24 24 23 23 23 23 23 23 24
33 34 34 33 32 32 31 30 30 31 32 32 31 31 30 31 31 32 32 32 31 29 28 27 26 25 26 26 26 26 26 26 26 25 25 24 24 24 23 24 24 24 25 25
32 32 32 33 33 33 32 31 30 30 30 30 30 30 31 32 33 33 32 31 31 30 28 27 27 27 27 27 27 28 28 28 27 26 26 25 25 25 26 26 26 26 26 26
32 32 32 32 32 32 31 31 31 30 30 31 31 31 30 31 31 32 32 32 31 31 29 28 28 28 27 27 28 29 28 28 27 27 27 27 27 27 27 27 27 27 27 27
Wind_Direction
204 203 200 198 196 192 184 175 162 117 42 31 43 52 48 48 48 37 30 26 29 31 33 35 36 41 48 48 48 49 49 49 49 49 47 46 47 50 51 48 42 38 31 23
210 210 202 199 198 197 196 205 193 181 282 349 12 29 46 46 44 33 26 24 28 30 29 32 34 46 48 48 48 49 48 47 46 45 43 43 44 43 42 39 35 28 25 25
213 210 208 204 199 200 200 208 205 209 203 236 312 4 27 53 41 26 19 20 23 24 23 26 33 40 46 48 47 46 45 43 41 41 40 39 37 37 34 32 30 25 25 24
212 208 209 209 202 204 210 211 214 221 222 231 243 286 333 19 21 17 5 7 16 17 12 17 29 35 37 41 42 42 42 39 37 36 37 38 36 35 33 30 28 27 28 27
213 211 214 214 208 210 214 216 218 222 227 235 241 250 272 304 335 352 356 358 3 9 4 6 19 28 29 31 35 37 36 35 34 33 33 33 31 30 29 28 28 27 27 26
216 213 214 214 211 213 215 217 217 223 229 237 240 247 265 287 312 331 347 346 351 355 357 358 3 16 22 22 24 27 29 29 30 30 27 26 26 25 24 24 24 24 25 23
217 215 214 213 213 216 216 220 222 225 231 237 237 250 265 276 295 301 310 318 323 340 345 354 354 355 10 9 13 19 21 20 23 24 22 22 22 21 22 21 19 19 18 17
219 215 215 214 216 220 220 222 224 227 234 238 240 250 257 268 275 267 275 283 293 319 335 342 344 334 350 358 358 7 15 12 10 13 14 16 17 16 14 13 11 12 11 9
220 218 214 216 219 220 221 223 222 226 235 242 243 245 252 258 262 261 267 278 290 305 318 323 328 322 322 336 345 351 356 358 353 355 357 359 358 1 3 4 4 2 2 359
218 216 213 217 220 220 220 222 220 225 232 237 243 248 257 256 261 257 263 273 287 293 298 304 312 312 316 321 325 325 333 338 338 338 337 335 341 345 348 349 347 345 346 348
217 218 212 213 216 219 222 223 223 226 231 235 242 248 257 257 259 258 265 272 280 285 284 298 301 301 302 306 314 316 318 321 325 325 321 316 325 332 336 338 340 338 338 338
216 218 214 212 215 218 222 227 226 228 232 238 245 249 252 258 261 262 265 269 271 280 280 289 291 293 293 297 301 306 310 312 313 316 314 314 313 318 325 328 329 329 329 330
215 218 216 213 215 217 220 225 228 230 232 238 244 251 252 258 262 262 265 265 267 272 280 286 288 291 290 291 294 298 303 305 306 305 305 312 314 316 318 318 318 319 320 322
216 219 219 218 217 219 222 224 227 229 231 236 242 247 252 256 258 259 263 263 267 271 278 282 285 288 288 289 289 290 295 298 300 301 300 304 307 311 310 310 312 312 314 316
216 219 220 220 219 220 222 223 226 229 233 237 240 242 247 252 254 257 261 262 269 270 274 280 282 283 282 284 285 286 286 291 295 298 298 298 304 307 309 307 310 310 310 312
216 219 219 219 219 221 224 224 224 227 232 237 241 243 245 251 252 256 260 263 266 265 269 276 278 280 278 279 283 287 285 290 293 294 298 300 302 304 307 308 307 307 308 309
218 220 220 220 219 221 223 224 226 228 232 237 242 245 244 245 249 254 260 265 267 269 269 271 272 276 277 279 282 286 288 289 291 292 296 300 301 302 304 306 305 305 306 308
220 222 222 221 220 222 223 224 228 232 235 237 240 243 243 246 249 252 258 262 267 272 270 267 272 275 276 280 282 284 284 286 288 289 292 295 298 300 301 301 302 303 303 305
222 222 222 221 222 224 223 225 229 232 236 237 241 243 243 245 250 255 258 261 266 270 271 273 274 274 275 278 280 281 280 283 287 289 290 292 294 296 297 298 299 301 302 302
224 224 225 224 225 227 226 226 230 233 237 238 241 243 245 244 250 251 255 259 262 265 267 268 270 273 275 276 277 279 280 280 283 286 288 290 292 293 296 297 299 300 300 302
225 225 225 226 228 229 228 227 229 233 238 240 242 243 246 247 249 252 254 258 262 265 265 267 269 270 271 273 275 277 279 280 283 284 286 288 290 291 293 295 297 300 301 301
225 225 226 226 229 230 230 229 231 235 239 241 242 243 245 249 252 255 257 259 261 264 265 265 264 265 268 271 273 275 278 280 281 283 284 286 288 289 291 293 295 298 301 301
224 226 226 228 232 233 233 234 235 237 241 243 245 247 251 253 254 256 258 260 262 262 263 264 262 263 267 269 270 273 276 278 281 283 283 284 285 287 288 290 294 296 297 299
225 225 227 229 232 233 234 235 236 238 240 242 246 249 252 254 256 257 257 258 260 261 262 262 263 264 267 268 269 271 273 277 280 282 283 283 282 283 285 288 290 293 294 296
226 226 229 231 232 234 237 236 237 238 241 244 246 249 252 252 254 255 257 259 259 260 260 262 263 266 267 267 269 271 272 275 277 279 281 281 281 281 283 286 289 292 293 294
227 227 229 231 233 237 240 242 243 243 242 244 246 249 251 253 256 256 257 259 259 259 261 261 263 265 265 266 268 270 271 274 276 276 278 280 281 282 283 284 287 289 290 291
Height
5916 5919 5921 5923 5924 5925 5926 5926 5928 5928 5928 5928 5928 5928 5928 5927 5926 5926 5925 5924 5923 5922 5921 5919 5917 5915 5914 5913 5912 5911 5909 5908 5907 5906 5905 5904 5902 5901 5900 5898 5897 5896 5895 5893
5914 5917 5920 5922 5923 5923 5924 5926 5927 5927 5928 5928 5928 5928 5928 5928 5927 5927 5926 5925 5924 5923 5921 5920 5918 5916 5916 5915 5913 5912 5911 5910 5909 5907 5906 5905 5904 5902 5901 5899 5898 5896 5895 5893
5912 5916 5917 5919 5920 5921 5923 5925 5926 5926 5927 5927 5928 5928 5928 5928 5927 5927 5926 5925 5924 5924 5922 5921 5919 5918 5917 5916 5915 5914 5912 5911 5910 5909 5908 5906 5905 5903 5902 5900 5899 5897 5895 5893
5907 5912 5914 5915 5917 5919 5921 5923 5924 5925 5925 5926 5927 5926 5927 5926 5927 5926 5926 5925 5925 5924 5922 5921 5920 5919 5918 5917 5916 5915 5914 5912 5911 5910 5909 5907 5906 5905 5903 5901 5899 5897 5895 5894
5904 5908 5910 5912 5915 5917 5919 5921 5922 5923 5923 5924 5925 5925 5926 5926 5926 5926 5926 5925 5924 5924 5923 5921 5920 5919 5919 5918 5917 5915 5914 5913 5912 5911 5910 5908 5907 5905 5904 5902 5900 5898 5896 5894
5900 5903 5906 5909 5912 5914 5917 5918 5919 5920 5921 5922 5923 5923 5924 5925 5925 5925 5925 5925 5924 5924 5923 5922 5921 5920 5919 5918 5917 5916 5915 5914 5912 5911 5910 5908 5907 5905 5904 5902 5900 5898 5896 5894
5894 5898 5901 5905 5908 5910 5913 5915 5916 5917 5917 5919 5921 5921 5923 5923 5923 5923 5923 5923 5923 5923 5922 5921 5920 5920 5919 5918 5917 5916 5915 5914 5913 5911 5910 5908 5907 5906 5904 5902 5901 5899 5896 5894
5889 5893 5897 5900 5903 5906 5909 5911 5913 5915 5915 5917 5918 5918 5921 5920 5920 5921 5921 5922 5922 5922 5921 5921 5920 5919 5918 5918 5917 5915 5915 5914 5912 5911 5910 5908 5907 5906 5904 5902 5900 5898 5896 5894
5883 5888 5893 5896 5899 5902 5905 5907 5910 5911 5912 5913 5914 5916 5917 5917 5918 5918 5919 5919 5920 5920 5920 5919 5919 5918 5917 5917 5916 5914 5913 5913 5912 5911 5909 5908 5907 5905 5904 5902 5900 5898 5896 5893
5878 5883 5888 5891 5894 5897 5901 5903 5905 5907 5908 5909 5910 5912 5913 5914 5915 5916 5916 5917 5917 5918 5918 5918 5917 5917 5916 5916 5915 5914 5913 5912 5911 5910 5909 5907 5906 5904 5903 5901 5899 5897 5895 5892
5872 5877 5882 5885 5888 5892 5896 5898 5900 5902 5904 5905 5907 5910 5911 5911 5912 5913 5913 5914 5915 5915 5915 5915 5915 5915 5915 5914 5913 5912 5912 5911 5910 5908 5907 5906 5905 5903 5902 5900 5897 5895 5893 5891
5866 5870 5875 5880 5884 5887 5890 5893 5895 5898 5900 5902 5903 5908 5907 5908 5908 5909 5910 5911 5911 5912 5912 5913 5913 5913 5912 5911 5911 5911 5910 5909 5908 5906 5905 5904 5902 5901 5899 5898 5896 5893 5891 5889
5860 5864 5869 5874 5879 5882 5884 5887 5890 5893 5896 5897 5899 5903 5903 5904 5904 5905 5906 5907 5908 5909 5909 5909 5910 5909 5909 5909 5908 5908 5907 5906 5905 5904 5903 5901 5900 5898 5896 5895 5893 5891 5889 5887
5854 5858 5863 5868 5872 5876 5879 5883 5885 5887 5889 5892 5894 5897 5898 5900 5901 5901 5902 5903 5904 5905 5906 5906 5906 5906 5906 5906 5905 5905 5904 5903 5902 5901 5899 5898 5897 5895 5893 5892 5890 5888 5886 5884
5848 5852 5856 5862 5866 5870 5873 5877 5880 5882 5884 5887 5889 5891 5894 5895 5896 5898 5899 5900 5900 5901 5902 5903 5903 5903 5903 5902 5902 5901 5901 5900 5899 5897 5896 5895 5893 5892 5890 5888 5887 5885 5883 5881
5841 5846 5851 5856 5860 5863 5867 5871 5874 5877 5879 5882 5884 5886 5889 5891 5892 5893 5894 5895 5896 5897 5898 5899 5899 5899 5898 5898 5898 5898 5897 5896 5895 5893 5892 5891 5889 5888 5886 5884 5883 5881 5879 5877
5835 5840 5845 5849 5854 5857 5861 5865 5868 5871 5874 5876 5878 5882 5884 5885 5887 5888 5890 5891 5892 5893 5894 5894 5894 5894 5894 5894 5894 5893 5892 5891 5890 5889 5887 5886 5885 5883 5882 5880 5878 5877 5875 5872
5829 5834 5838 5842 5847 5850 5857 5860 5863 5866 5868 5871 5874 5876 5878 5880 5882 5883 5884 5885 5887 5888 5889 5889 5889 5890 5890 5890 5889 5888 5887 5886 5885 5884 5883 5882 5881 5879 5878 5876 5874 5872 5870 5868
5822 5827 5831 5835 5839 5843 5850 5853 5857 5860 5862 5865 5868 5870 5872 5874 5876 5877 5879 5880 5881 5882 5884 5884 5885 5885 5885 5885 5884 5883 5883 5882 5880 5879 5878 5877 5876 5874 5873 5871 5869 5867 5865 5862
5816 5820 5825 5828 5832 5837 5844 5848 5850 5854 5856 5859 5861 5863 5865 5867 5869 5871 5873 5874 5875 5876 5877 5878 5879 5879 5879 5879 5878 5878 5877 5876 5875 5874 5873 5872 5871 5869 5867 5866 5864 5862 5859 5857
5809 5813 5817 5821 5825 5831 5836 5840 5844 5847 5850 5852 5854 5857 5859 5861 5863 5866 5867 5869 5869 5870 5870 5871 5872 5872 5872 5872 5872 5872 5871 5871 5870 5869 5868 5866 5865 5863 5862 5860 5858 5856 5854 5851
5803 5806 5811 5815 5819 5826 5829 5833 5837 5840 5843 5845 5848 5850 5852 5855 5857 5859 5860 5861 5862 5863 5863 5864 5865 5865 5866 5866 5866 5865 5865 5865 5864 5863 5862 5860 5859 5858 5856 5854 5852 5850 5848 5846
5796 5801 5805 5810 5815 5819 5822 5827 5830 5833 5836 5838 5841 5844 5846 5848 5849 5851 5852 5853 5854 5855 5856 5856 5856 5858 5859 5859 5859 5859 5858 5858 5857 5856 5855 5853 5852 5851 5849 5848 5846 5844 5842 5839
5790 5795 5799 5803 5807 5811 5816 5819 5822 5825 5828 5831 5834 5836 5838 5840 5842 5842 5844 5845 5846 5848 5849 5849 5850 5851 5851 5851 5851 5851 5851 5851 5850 5849 5848 5846 5845 5844 5843 5841 5839 5837 5835 5833
5784 5789 5793 5797 5801 5805 5808 5811 5815 5818 5821 5824 5826 5828 5830 5831 5833 5834 5836 5837 5838 5839 5840 5841 5843 5843 5843 5843 5843 5844 5843 5843 5842 5841 5840 5839 5838 5837 5836 5834 5832 5830 5828 5826
5780 5784 5787 5790 5795 5799 5802 5804 5807 5809 5813 5816 5818 5820 5821 5823 5824 5826 5828 5830 5831 5831 5832 5833 5834 5835 5835 5835 5835 5835 5835 5835 5834 5833 5832 5831 5830 5828 5827 5826 5825 5823 5821 5819